User: anonymous   Login
Location: Sungai Jaoh
(2.9167°N, 113.9167°E)
Time: 16:42:02
(UTC+00:00)
Language:

FENGYUN 1C DEB - Orbit

View from above orbital plane
View from above orbital plane
View from above satellite
View from above satellite

Ground track
Ground track

The orbit data is extracted from the following two-line orbital elements,

1 31416U 99025BTC 21172.08621301  .00000050  00000-0  31560-4 0  9998
2 31416  99.0015 111.3525 0144010  10.9986   1.8246 14.35662755420182
Epoch (UTC): 21 June 2021 02:04:08
Eccentricity: 0.0144010
inclination: 99.0015°
perigee height: 670 km
apogee height: 876 km
right ascension of ascending node: 111.3525°
argument of perigee: 10.9986°
revolutions per day: 14.35662755
mean anomaly at epoch: 1.8246°
orbit number at epoch: 42018

The dashed part of the orbit path shows where the satellite is in the earth's shadow,  

DLR